Location: Unspecified
(48.8656°N, 0.0000°E)
Time: 13:49:50
(UTC+00:00)

Vanguard 1 Rocket - Pass Details

Date: 21 June 2019
Orbit: 651 x 4225 km, 34.3° (Epoch: 16 July)

Event Time Altitude Azimuth Distance (km) Brightness Sun altitude
Rises 13:49:39 0° 183° (S) 8,215 12.6 56.9°
Reaches altitude 10° 14:02:53 10° 155° (SSE) 6,384 11.9 55.2°
Maximum altitude 14:06:54 11° 143° (SE) 5,956 11.7 54.6°
Drops below altitude 10° 14:10:32 10° 131° (SE) 5,685 11.5 54.1°
Sets 14:19:10 0° 100° (E) 5,718 11.2 52.9°
